Tracking 30923 objects as of 1-Jul-2025
HD Live streaming from Space Station
objects crossing your sky now

HELIOS-2A

Track HELIOS-2A now!
10-day predictions
HELIOS-2A is classified as:


NORAD ID: 28492
Int'l Code: 2004-049A
Perigee: 565.0 km
Apogee: 576.4 km
Inclination: 98.3 °
Period: 95.9 minutes
Semi major axis: 6941 km
RCS: Unknown
Launch date: December 18, 2004
Source: France (FR)
Launch site: FRENCH GUIANA (FRGUI)

Optical reconnaissance; independent military intelligence capability for the EU.
Your satellite tracking list
CZ-4 DEB
Track 1 satellite(s)




NASA's NSSDC Master Catalog

Two Line Element Set (TLE):
1 28492U 04049A   25181.55966007  .00001986  00000-0  16054-3 0  9990
2 28492  98.2926 206.6832 0008218  56.1019 304.0984 15.01066907100982
Source of the keplerian elements: McCants